Scottsdale, AZ

6:17 AM MST on April 20, 2018 (GMT -0700)
Scottsdale

Weather History for KSDL - July, 2013

Change the Weather History Date:

Wednesday, July 24, 2013

  Actual Average Record
Temperature  
Mean Temperature 93 °F -  
Max Temperature 102 °F 101 °F 111 °F (2014)
Min Temperature 84 °F 81 °F 75 °F (2011)
Cooling Degree Days 28    
Growing Degree Days 43 (Base 50)    
Moisture  
Dew Point 64 °F    
Average Humidity 41    
Maximum Humidity 65    
Minimum Humidity 24    
Precipitation  
Precipitation 0.12 in - - ()
Sea Level Pressure  
Sea Level Pressure 29.77 in    
Wind  
Wind Speed 3 mph (WSW)    
Max Wind Speed 21 mph    
Max Gust Speed 33 mph    
Visibility 9 miles    
Events Rain , Thunderstorm    
Averages and records for this station are not official NWS values.
T = Trace of Precipitation, MM = Missing Value Source: NWS Daily Summary

Daily Weather History Graph

Daily Weather History Graph

Search for Another Location

Airport or City:

Astronomy

Jul. 24, 2013 Rise Set
Actual Time 5:34 AM MST 7:33 PM MST
Civil Twilight 5:06 AM MST 8:01 PM MST
Nautical Twilight 4:33 AM MST 8:34 PM MST
Astronomical Twilight 3:56 AM MST 9:10 PM MST
Moon 8:53 PM MST (7/24) 7:49 AM MST (7/24)
Length of Visible Light 14h 54m
Length of Day
13h 58m
Waning Gibbous, 94% of the Moon is Illuminated
Jul 24
Waning Gibbous
Jul 29
Last Quarter
Aug 6
New
Aug 14
First Quarter
Aug 20
Full

Hourly Weather History & Observations

Time (MST) Temp. Heat Index Dew Point Humidity Pressure Visibility Wind Dir Wind Speed Gust Speed Precip Events Conditions
12:53 AM 90.0 °F 90.0 °F 61.0 °F 38% 29.79 in 10.0 mi NW 3.5 mph - N/A   Clear
1:53 AM 89.1 °F 89.0 °F 61.0 °F 39% 29.79 in 10.0 mi Calm Calm - N/A   Clear
2:53 AM 87.1 °F 88.3 °F 64.0 °F 46% 29.79 in 10.0 mi Calm Calm - N/A   Clear
3:53 AM 84.9 °F 86.1 °F 64.0 °F 49% 29.80 in 10.0 mi Calm Calm - N/A   Clear
4:53 AM 84.9 °F 86.1 °F 64.0 °F 49% 29.80 in 10.0 mi Calm Calm - N/A   Clear
5:53 AM 84.9 °F 86.1 °F 64.0 °F 49% 29.81 in 10.0 mi Calm Calm - N/A   Scattered Clouds
6:53 AM 86.0 °F 87.3 °F 64.0 °F 48% 29.81 in 10.0 mi NNW 3.5 mph - N/A   Clear
7:53 AM 88.0 °F 88.7 °F 63.0 °F 43% 29.82 in 10.0 mi NNW 4.6 mph - N/A   Clear
8:53 AM 91.0 °F 91.9 °F 63.0 °F 39% 29.82 in 10.0 mi Calm Calm - N/A   Clear
9:53 AM 93.9 °F 94.8 °F 62.1 °F 35% 29.82 in 10.0 mi SW 4.6 mph - N/A   Clear
10:53 AM 95.0 °F 95.6 °F 62.1 °F 33% 29.81 in 10.0 mi WSW 5.8 mph - N/A   Clear
11:53 AM 97.0 °F 98.3 °F 63.0 °F 32% 29.80 in 10.0 mi Variable 3.5 mph - N/A   Clear
12:53 PM 100.0 °F 101.2 °F 61.0 °F 28% 29.77 in 10.0 mi Variable 6.9 mph - N/A   Clear
1:53 PM 100.9 °F 102.1 °F 61.0 °F 27% 29.75 in 10.0 mi SSW 9.2 mph - N/A   Clear
2:53 PM 100.9 °F 101.6 °F 60.1 °F 26% 29.73 in 10.0 mi SSW 4.6 mph - N/A   Clear
3:53 PM 102.0 °F 102.2 °F 59.0 °F 24% 29.70 in 10.0 mi SSW 5.8 mph - N/A   Clear
4:53 PM 102.9 °F 103.6 °F 60.1 °F 24% 29.69 in 10.0 mi SW 8.1 mph 16.1 mph N/A   Clear
5:53 PM 102.0 °F 102.7 °F 60.1 °F 25% 29.68 in 10.0 mi SSW 4.6 mph - N/A   Partly Cloudy
6:38 PM 100.4 °F 101.3 °F 60.8 °F 27% 29.78 in 10.0 mi Variable 3.5 mph - N/A Thunderstorm Scattered Clouds
6:53 PM 91.9 °F 94.5 °F 66.0 °F 42% 29.72 in 5.0 mi North 20.7 mph 33.4 mph 0.00 in Rain Light Rain
7:05 PM 87.8 °F 91.4 °F 68.0 °F 52% 29.82 in 2.5 mi NW 10.4 mph 27.6 mph 0.04 in Rain Rain
7:31 PM 86.0 °F 90.4 °F 69.8 °F 58% 29.80 in 7.0 mi South 6.9 mph - 0.12 in Rain Light Rain
7:53 PM 89.1 °F 96.0 °F 72.0 °F 57% 29.73 in 10.0 mi NNE 6.9 mph - 0.12 in   Mostly Cloudy
8:53 PM 87.1 °F 95.4 °F 73.9 °F 65% 29.75 in 10.0 mi Calm Calm - N/A   Mostly Cloudy
9:53 PM 91.0 °F 95.6 °F 69.1 °F 48% 29.77 in 10.0 mi SE 3.5 mph - N/A   Overcast
10:53 PM 90.0 °F 92.8 °F 66.9 °F 46% 29.77 in 10.0 mi Calm Calm - N/A   Clear
11:53 PM 90.0 °F 92.8 °F 66.9 °F 46% 29.78 in 10.0 mi SSE 3.5 mph - N/A   Mostly Cloudy